Location: Unspecified
(52.4292°N, 19.3359°E)
Time: 23:06:47
(UTC+02:00)

Altair - Pass Details

Date: 23 May 2024
Orbit: 1502 x 1682 km, 47.2° (Epoch: 19 June)

Event Time Altitude Azimuth Distance (km) Brightness Sun altitude
Rises 15:57:32 0° 283° (WNW) 4,918 10.8 40.6°
Reaches altitude 10° 16:00:51 10° 277° (W) 3,939 10.6 40.1°
Maximum altitude 16:10:14 45° 210° (SSW) 2,177 9.5 38.8°
Drops below altitude 10° 16:19:33 10° 142° (SE) 3,912 9.5 37.4°
Sets 16:22:51 0° 137° (SE) 4,881 9.9 36.9°
